[[{"header":{"parameterUnit":"m.s-1","parameterCategory":1,"la1":30.2991,"la2":30.254,"lo1":-89.0895,"lo2":-89.0444,"dy":0.0017,"dx":0.0017,"nx":28,"ny":28,"refTime":"2025-09-13T03:00:00:Z","depth":0,"parameterNumber":2,"parameterNumberName":"U-component_of_WINDS"},"data":[0,0,0,0,0,0,0,0,0,0,0,0,0,0,0,0,0,0,0,0,0,0,0,0,0,0,0,0,0,0,0,0,0,0,0,0,0,0,0,0,0,0,0,0,0,0,0,0,0,0,0,0,0,0,0,0,0,0,-0.7564,-0.7563,0,-0.7538,-0.7538,-0.7537,-0.7476,-0.7474,-0.7473,-0.7472,-0.7447,-0.7448,-0.7448,0,0,0,0,0,0,0,0,0,0,0,0,0,-0.7561,-0.7561,-0.7564,-0.7563,-0.7563,-0.7538,-0.7538,-0.7537,-0.7476,-0.7474,-0.7473,-0.7471,-0.7447,-0.7448,-0.7448,0,0,0,0,0,0,0,0,0,0,0,0,0,-0.7551,-0.7561,-0.7564,-0.7529,-0.7526,-0.7538,-0.7538,-0.7537,-0.7476,-0.7474,-0.7472,-0.7471,-0.7447,-0.7448,-0.7448,-0.7492,0,0,-0.7451,-0.7451,0,0,0,0,0,0,0,0,-0.7552,-0.7552,-0.7535,-0.7532,-0.7528,-0.7508,-0.7527,-0.7522,-0.7477,-0.7495,-0.7472,-0.747,-0.7469,-0.7468,-0.7467,-0.7491,-0.749,-0.7451,-0.7451,-0.7452,-0.7452,0,0,0,0,0,0,0,-0.7553,-0.7552,-0.7553,-0.7535,-0.753,-0.7516,-0.7512,-0.7526,-0.7493,-0.7493,-0.7489,-0.7487,-0.7467,-0.7467,-0.7466,-0.749,-0.7451,-0.7452,-0.7452,-0.7452,-0.7548,-0.7549,0,0,0,0,0,0,-0.7558,-0.7553,-0.7554,-0.7553,-0.7535,-0.7517,-0.7513,-0.7516,-0.7493,-0.7488,-0.7488,-0.7484,-0.7466,-0.7465,-0.7465,-0.7515,-0.7452,-0.7453,-0.7453,-0.7545,-0.7548,-0.755,0,0,0,0,0,0,-0.7558,-0.7559,-0.7555,-0.7552,-0.755,-0.7519,-0.7523,-0.7517,-0.7517,-0.7489,-0.7483,-0.7494,-0.7465,-0.7464,-0.7486,-0.7513,-0.7453,-0.7454,-0.7543,-0.7546,-0.7549,-0.7615,0,0,0,0,0,0,-0.7559,-0.7559,-0.7575,-0.7553,-0.7551,-0.7576,-0.7525,-0.7518,-0.7518,-0.7512,-0.7493,-0.7488,-0.7463,-0.7485,-0.7487,-0.7513,-0.7454,-0.754,-0.7544,-0.7548,-0.761,-0.762,-0.7628,0,0,0,0,0,-0.7559,-0.7595,-0.7577,-0.7577,-0.757,-0.7578,-0.7577,-0.7547,-0.7521,-0.7537,-0.7519,-0.7489,-0.751,-0.7488,-0.7489,-0.7516,-0.7539,-0.7543,-0.7548,-0.7606,-0.7618,-0.7628,0,0,0,0,0,0,-0.7623,-0.7592,-0.7571,-0.7601,-0.7592,-0.7567,-0.7587,-0.756,-0.756,-0.7554,-0.7518,-0.7514,-0.7541,-0.753,-0.7506,-0.7557,-0.7519,-0.7524,-0.7563,-0.7574,-0.7583,-0.7585,-0.7455,0,0,0,0,0,-0.764,-0.7649,-0.7621,-0.7651,-0.7648,-0.7618,-0.762,-0.7598,-0.7588,-0.7584,-0.7568,-0.756,-0.7565,-0.7569,-0.7572,-0.7608,-0.7603,-0.7628,-0.7637,-0.7644,-0.7649,-0.7668,-0.7678,-0.7565,-0.7565,-0.7565,0,0,-0.7677,-0.7661,-0.7669,-0.7663,-0.7654,-0.7664,-0.7616,-0.7628,-0.7636,-0.7586,-0.7606,-0.7594,-0.7582,-0.7612,-0.7624,-0.7604,-0.7679,-0.765,-0.7656,-0.7657,-0.7674,-0.7684,-0.7694,-0.7568,-0.7568,-0.7567,0,0,-0.7749,-0.7738,-0.7761,-0.7752,-0.7739,-0.7719,-0.7725,-0.7704,-0.7693,-0.7712,-0.7675,-0.7684,-0.7693,-0.7686,-0.7684,-0.7753,-0.7725,-0.7755,-0.7802,-0.782,-0.7829,-0.7837,-0.7862,-0.7871,-0.776,-0.776,-0.776,0,-0.7797,-0.781,-0.7776,-0.7791,-0.779,-0.7745,-0.7769,-0.7762,-0.7751,-0.7751,-0.7729,-0.7739,-0.7728,-0.7755,-0.7772,-0.7772,-0.7777,-0.7757,-0.7831,-0.7838,-0.7845,-0.7868,-0.7878,-0.7763,-0.7763,-0.7763,-0.7762,0,-0.7869,-0.7879,-0.7899,-0.7888,-0.7889,-0.7909,-0.7878,-0.7883,-0.7861,-0.7844,-0.7863,-0.7848,-0.7847,-0.7852,-0.7831,-0.7876,-0.7864,-0.7837,-0.7798,-0.786,-0.7881,-0.789,-0.7769,-0.7767,-0.7766,-0.7765,0,0,-0.7981,-0.7951,-0.7959,-0.7954,-0.7935,-0.7943,-0.796,-0.7958,-0.7963,-0.7957,-0.7971,-0.7979,-0.7953,-0.7951,-0.7928,-0.7945,-0.8,-0.7915,-0.7914,-0.7932,-0.805,-0.8071,-0.8082,-0.7982,-0.7983,-0.7984,-0.8051,0,-0.8049,-0.8076,-0.8047,-0.808,-0.8089,-0.8046,-0.8061,-0.8052,-0.8036,-0.8041,-0.8024,-0.803,-0.7996,-0.7994,-0.8008,-0.7991,-0.8024,-0.7985,-0.7995,-0.7996,-0.8,-0.8093,-0.8116,-0.818,-0.8059,-0.8061,-0.8062,0,-0.8132,-0.8129,-0.8163,-0.8142,-0.8145,-0.8159,-0.8155,-0.816,-0.8149,-0.8136,-0.8133,-0.8106,-0.8121,-0.8083,-0.8104,-0.8079,-0.8081,-0.8073,-0.8075,-0.8075,-0.8033,-0.8097,-0.8199,-0.8209,-0.8075,-0.8074,-0.8073,0,-0.8211,-0.8215,-0.8236,-0.8233,-0.8209,-0.822,-0.821,-0.8197,-0.8198,-0.8195,-0.8195,-0.8194,-0.8193,-0.8193,-0.8166,-0.8141,-0.8191,-0.8151,-0.8182,-0.8182,-0.8195,-0.8194,-0.83,-0.8195,-0.8195,-0.8195,-0.8195,0,-0.829,-0.8313,-0.8271,-0.8284,-0.8309,-0.8274,-0.83,-0.8286,-0.8274,-0.8284,-0.8247,-0.8257,-0.8221,-0.8227,-0.8206,-0.8227,-0.8227,-0.8218,-0.8212,-0.8221,-0.8223,-0.8223,-0.8218,-0.8197,-0.8197,-0.8196,-0.8196,0,-0.8383,-0.8356,-0.8376,-0.8351,-0.8346,-0.8365,-0.8344,-0.8355,-0.8336,-0.835,-0.8351,-0.8322,-0.8327,-0.83,-0.8301,-0.8287,-0.8319,-0.8305,-0.8323,-0.8319,-0.8352,-0.8349,-0.8461,-0.8474,-0.8361,-0.8362,-0.8363,0,-0.8435,-0.8452,-0.8429,-0.8432,-0.8425,-0.8431,-0.8432,-0.8399,-0.8401,-0.8389,-0.8402,-0.8404,-0.8404,-0.8416,-0.8395,-0.8396,-0.8382,-0.8421,-0.8382,-0.8391,-0.8383,-0.8383,-0.8384,-0.843,-0.8431,-0.8432,-0.8433,0,-0.8532,-0.8517,-0.8519,-0.8516,-0.8518,-0.8514,-0.8509,-0.8514,-0.8478,-0.8482,-0.8487,-0.8487,-0.8488,-0.8491,-0.8487,-0.8478,-0.845,-0.8445,-0.8453,-0.8463,-0.8472,-0.8468,-0.8346,-0.8443,-0.8442,-0.8441,-0.8441,-0.844,-0.8606,-0.8618,-0.8604,-0.8608,-0.8599,-0.8595,-0.8604,-0.8586,-0.859,-0.8587,-0.8567,-0.8576,-0.8564,-0.8556,-0.855,-0.8556,-0.8538,-0.8548,-0.8551,-0.8554,-0.856,-0.8471,-0.8556,-0.8555,-0.8555,-0.8555,-0.8554,0,-0.87,-0.8689,-0.8692,-0.8685,-0.8688,-0.866,-0.8652,-0.8656,-0.8664,-0.8655,-0.8656,-0.8662,-0.8665,-0.8644,-0.8644,-0.8654,-0.8641,-0.8655,-0.8654,-0.8652,-0.8577,-0.8571,-0.8665,-0.8665,-0.8665,-0.8665,-0.8665,-0.8665,-0.875,-0.877,-0.8754,-0.877,-0.8758,-0.8766,-0.8764,-0.8759,-0.8752,-0.876,-0.8761,-0.8748,-0.8734,-0.8733,-0.8734,-0.8728,-0.873,-0.8749,-0.8739,-0.8668,-0.8658,-0.8647,-0.8642,-0.875,-0.875,-0.8814,-0.8814,-0.8815]},{"header":{"parameterUnit":"m.s-1","parameterCategory":1,"la1":30.2991,"la2":30.254,"lo1":-89.0895,"lo2":-89.0444,"dy":0.0017,"dx":0.0017,"nx":28,"ny":28,"refTime":"2025-09-13T03:00:00:Z","depth":0,"parameterNumber":3,"parameterNumberName":"V-component_of_WINDS"},"data":[0,0,0,0,0,0,0,0,0,0,0,0,0,0,0,0,0,0,0,0,0,0,0,0,0,0,0,0,0,0,0,0,0,0,0,0,0,0,0,0,0,0,0,0,0,0,0,0,0,0,0,0,0,0,0,0,0,0,-1.2138,-1.2138,0,-1.2127,-1.2127,-1.2126,-1.209,-1.2089,-1.2088,-1.2087,-1.2077,-1.2077,-1.2078,0,0,0,0,0,0,0,0,0,0,0,0,0,-1.2128,-1.2129,-1.2138,-1.2138,-1.2137,-1.2127,-1.2127,-1.2126,-1.209,-1.2089,-1.2088,-1.2087,-1.2077,-1.2077,-1.2078,0,0,0,0,0,0,0,0,0,0,0,0,0,-1.2127,-1.2129,-1.2138,-1.2118,-1.2116,-1.2127,-1.2127,-1.2126,-1.209,-1.2089,-1.2088,-1.2087,-1.2077,-1.2077,-1.2078,-1.2107,0,0,-1.208,-1.2081,0,0,0,0,0,0,0,0,-1.2127,-1.2127,-1.2121,-1.2119,-1.2117,-1.2108,-1.2119,-1.212,-1.209,-1.21,-1.2087,-1.2086,-1.2088,-1.2088,-1.2089,-1.2107,-1.2106,-1.208,-1.2081,-1.2081,-1.2081,0,0,0,0,0,0,0,-1.2127,-1.2127,-1.2133,-1.2121,-1.2119,-1.211,-1.2108,-1.2119,-1.2101,-1.2099,-1.2096,-1.2096,-1.2087,-1.2088,-1.2088,-1.2106,-1.208,-1.2081,-1.2081,-1.2082,-1.2148,-1.2149,0,0,0,0,0,0,-1.213,-1.2128,-1.2134,-1.2133,-1.2119,-1.2111,-1.2109,-1.2112,-1.2101,-1.2098,-1.2097,-1.2094,-1.2088,-1.2087,-1.2088,-1.2121,-1.2081,-1.2082,-1.2082,-1.2147,-1.2148,-1.215,0,0,0,0,0,0,-1.213,-1.2131,-1.2134,-1.213,-1.2129,-1.2113,-1.2116,-1.2113,-1.2114,-1.2099,-1.2096,-1.2101,-1.2087,-1.2087,-1.2103,-1.2121,-1.2082,-1.2083,-1.2145,-1.2147,-1.2149,-1.2189,0,0,0,0,0,0,-1.2129,-1.2131,-1.2141,-1.213,-1.213,-1.2149,-1.2118,-1.2114,-1.2115,-1.2111,-1.2102,-1.21,-1.2086,-1.2102,-1.2103,-1.2121,-1.2083,-1.2144,-1.2146,-1.2148,-1.2186,-1.2192,-1.2197,0,0,0,0,0,-1.2129,-1.2153,-1.2142,-1.2143,-1.2143,-1.215,-1.215,-1.2133,-1.2117,-1.2127,-1.2118,-1.21,-1.2118,-1.2104,-1.2105,-1.2123,-1.2142,-1.2145,-1.2148,-1.2183,-1.2191,-1.2197,0,0,0,0,0,0,-1.2167,-1.2151,-1.2139,-1.2159,-1.2156,-1.2144,-1.2157,-1.2141,-1.2143,-1.214,-1.2119,-1.2117,-1.2136,-1.2131,-1.2115,-1.2151,-1.2127,-1.2131,-1.2154,-1.216,-1.2166,-1.2167,-1.2084,0,0,0,0,0,-1.2178,-1.2185,-1.2171,-1.219,-1.2189,-1.2174,-1.2176,-1.2164,-1.216,-1.2158,-1.215,-1.2147,-1.2152,-1.2156,-1.216,-1.2185,-1.2183,-1.2198,-1.2204,-1.2209,-1.2212,-1.2225,-1.2232,-1.216,-1.216,-1.216,0,0,-1.22,-1.2192,-1.2198,-1.2198,-1.2194,-1.2202,-1.2173,-1.2182,-1.2189,-1.216,-1.2174,-1.2168,-1.2164,-1.2185,-1.2193,-1.2181,-1.2231,-1.2212,-1.2216,-1.2217,-1.2229,-1.2236,-1.2242,-1.2162,-1.2161,-1.2161,0,0,-1.2244,-1.2239,-1.2255,-1.2252,-1.2246,-1.2236,-1.224,-1.223,-1.2225,-1.2239,-1.2218,-1.2225,-1.2234,-1.2232,-1.2232,-1.2277,-1.226,-1.2279,-1.2308,-1.2321,-1.2327,-1.2332,-1.2348,-1.2354,-1.2282,-1.2282,-1.2282,0,-1.2273,-1.2284,-1.2265,-1.2277,-1.2278,-1.2252,-1.2268,-1.2266,-1.2262,-1.2264,-1.225,-1.2261,-1.2257,-1.2277,-1.2288,-1.2289,-1.2293,-1.2279,-1.2328,-1.2332,-1.2337,-1.2352,-1.2358,-1.2284,-1.2284,-1.2284,-1.2283,0,-1.2319,-1.2327,-1.2341,-1.2338,-1.234,-1.2354,-1.2338,-1.2343,-1.233,-1.2321,-1.2337,-1.233,-1.2332,-1.2336,-1.2324,-1.2355,-1.2348,-1.2331,-1.2307,-1.2346,-1.236,-1.2366,-1.2287,-1.2287,-1.2286,-1.2285,0,0,-1.2387,-1.2374,-1.2379,-1.2377,-1.237,-1.2376,-1.2389,-1.2391,-1.2396,-1.2394,-1.2405,-1.2414,-1.2398,-1.2399,-1.2386,-1.2398,-1.2434,-1.238,-1.2379,-1.239,-1.2468,-1.248,-1.2487,-1.2423,-1.2424,-1.2425,-1.2468,0,-1.2429,-1.245,-1.2434,-1.2458,-1.2466,-1.2442,-1.2453,-1.245,-1.2442,-1.2448,-1.2439,-1.2446,-1.2425,-1.2425,-1.2436,-1.2427,-1.2449,-1.2424,-1.2433,-1.2434,-1.2435,-1.2494,-1.2507,-1.2548,-1.2474,-1.2474,-1.2475,0,-1.2481,-1.2482,-1.2507,-1.2498,-1.25,-1.2511,-1.2512,-1.2518,-1.2514,-1.2507,-1.2508,-1.2493,-1.2505,-1.2482,-1.2499,-1.2482,-1.2485,-1.2482,-1.2483,-1.2483,-1.2457,-1.2496,-1.2561,-1.2567,-1.2483,-1.2483,-1.2482,0,-1.2528,-1.2535,-1.2551,-1.2551,-1.2541,-1.2549,-1.2545,-1.254,-1.2543,-1.2544,-1.2545,-1.2548,-1.2549,-1.2552,-1.2538,-1.2522,-1.2557,-1.2532,-1.2552,-1.2553,-1.2561,-1.256,-1.2627,-1.2563,-1.2563,-1.2563,-1.2563,0,-1.2577,-1.2593,-1.2572,-1.2582,-1.2599,-1.2581,-1.2599,-1.2593,-1.2589,-1.2598,-1.2577,-1.2586,-1.2567,-1.2573,-1.2563,-1.2579,-1.258,-1.2575,-1.2572,-1.2577,-1.2577,-1.2578,-1.2575,-1.2564,-1.2564,-1.2564,-1.2563,0,-1.2632,-1.2619,-1.2634,-1.2624,-1.2622,-1.2635,-1.2626,-1.2635,-1.2626,-1.2637,-1.2639,-1.2625,-1.2632,-1.2618,-1.2623,-1.2616,-1.2639,-1.2631,-1.264,-1.2638,-1.2658,-1.2657,-1.2728,-1.2736,-1.2667,-1.2668,-1.2668,0,-1.2664,-1.2676,-1.2667,-1.2671,-1.2668,-1.2675,-1.2678,-1.2661,-1.2664,-1.2661,-1.2671,-1.2676,-1.2679,-1.2691,-1.2682,-1.2686,-1.2678,-1.2703,-1.2678,-1.2683,-1.2678,-1.2678,-1.2679,-1.2708,-1.2708,-1.2709,-1.271,0,-1.2722,-1.2715,-1.2719,-1.2722,-1.2725,-1.2726,-1.2725,-1.273,-1.2712,-1.2717,-1.2724,-1.2726,-1.2732,-1.2737,-1.2739,-1.2736,-1.272,-1.2718,-1.2722,-1.2727,-1.2732,-1.273,-1.2653,-1.2716,-1.2715,-1.2715,-1.2714,-1.2714,-1.2767,-1.2776,-1.2772,-1.2777,-1.2775,-1.2775,-1.2783,-1.2775,-1.278,-1.2783,-1.2773,-1.2782,-1.2778,-1.2779,-1.2778,-1.2785,-1.2774,-1.2781,-1.2782,-1.2784,-1.2788,-1.2731,-1.2785,-1.2785,-1.2785,-1.2785,-1.2784,0,-1.2824,-1.282,-1.2825,-1.2825,-1.283,-1.2814,-1.2813,-1.2818,-1.2826,-1.2824,-1.2828,-1.2836,-1.2841,-1.2832,-1.2836,-1.2844,-1.2837,-1.2846,-1.2845,-1.2844,-1.2797,-1.2793,-1.2851,-1.2851,-1.2851,-1.2851,-1.2851,-1.2851,-1.2854,-1.287,-1.2862,-1.2877,-1.2872,-1.2881,-1.2882,-1.2882,-1.288,-1.289,-1.2894,-1.2888,-1.2884,-1.2887,-1.2892,-1.2889,-1.2892,-1.2903,-1.2898,-1.2854,-1.2848,-1.2841,-1.2837,-1.2904,-1.2904,-1.2944,-1.2944,-1.2945]}]]